FW5354 Weather Reports


Display with metric or nautical units.
time (UTC)temp
F
wind
direction
speed
MPH
gust
MPH
rain 1hr
in
rain 24hr
in
rain mn
in
humidity
%
barometer
mb
20260905004534 87 120 0.0 0.0 0.00 0.77 0.00 68 1010.0
20260905003033 88 119 0.0 0.0 0.00 0.77 0.00 66 1009.8
20260905001531 88 115 0.0 0.0 0.00 0.77 0.00 66 1009.5
20260905000031 89 169 0.0 0.0 0.00 0.77 0.00 66 1009.4
20260904234534 90 141 0.0 0.0 0.00 0.77 0.00 64 1009.5
20260904233030 91 159 0.0 0.0 0.00 0.77 0.00 63 1009.4
20260904231530 92 145 0.0 0.0 0.00 0.77 0.00 61 1009.3
20260904230031 93 118 0.0 0.0 0.00 0.77 0.00 59 1009.4
20260904224531 94 144 0.0 0.0 0.00 0.77 0.00 55 1009.3
20260904223027 94 134 0.0 0.0 0.00 0.77 0.00 58 1009.6
20260904221526 93 160 0.0 0.0 0.00 0.77 0.00 58 1009.6
20260904220039 93 130 0.0 0.0 0.00 0.77 0.00 57 1010.0
20260904214523 93 130 0.0 0.0 0.00 0.77 0.00 58 1009.7
20260904213023 93 130 0.0 0.0 0.00 0.78 0.00 61 1009.9
20260904211522 93 130 0.0 0.0 0.00 0.78 0.00 60 1010.1
20260904210027 93 126 0.0 0.0 0.00 0.78 0.00 62 1010.3
20260904204515 91 126 0.0 0.0 0.00 0.78 0.00 66 1010.6
20260904203012 90 129 0.0 0.0 0.00 0.84 0.00 68 1010.9
20260904201509 87 127 0.0 0.0 0.00 0.84 0.00 72 1011.1
20260904200012 85 129 0.0 0.0 0.00 0.84 0.00 72 1011.2
20260904194504 84 129 0.0 0.0 0.00 0.84 0.00 72 1011.4
20260904193113 82 134 0.0 0.0 0.00 0.97 0.00 61 1011.5
20260904191555 81 136 0.0 0.0 0.00 0.97 0.00 62 1011.7
20260904190052 80 139 0.0 0.0 0.00 0.97 0.00 65 1012.0
20260904184555 79 155 0.0 0.0 0.02 0.97 0.00 64 1012.2
20260904183044 78 164 0.0 0.0 0.11 0.97 0.97 46 1012.4
20260904181554 77 148 0.0 0.0 0.45 0.97 0.97 39 1012.6
20260904180053 75 151 0.0 0.0 0.77 0.97 0.97 39 1012.8
20260904174603 74 151 0.0 0.0 0.77 0.97 0.97 51 1012.9
20260904173042 74 117 0.0 0.0 0.69 0.89 0.89 58 1013.0
20260904171539 77 101 0.0 0.0 0.41 0.61 0.61 68 1014.1
20260904170036 84 92 0.0 0.0 0.00 0.20 0.20 72 1013.9
20260904164532 89 155 0.0 0.0 0.00 0.20 0.20 69 1013.0
20260904163036 92 142 0.0 0.0 0.00 0.20 0.20 65 1012.7
20260904161529 93 101 0.0 0.0 0.00 0.20 0.20 65 1012.3
20260904160028 91 252 0.0 0.0 0.00 0.20 0.20 68 1012.0
20260904154526 93 254 0.0 0.0 0.00 0.20 0.20 68 1012.0
20260904153032 92 255 0.0 0.0 0.00 0.20 0.20 70 1012.0
20260904151523 91 255 0.0 0.0 0.00 0.20 0.20 71 1012.0
20260904150016 88 255 0.0 0.0 0.00 0.20 0.20 72 1012.0
20260904144511 87 252 0.0 0.0 0.00 0.20 0.20 70 1012.0
20260904143006 85 252 0.0 0.0 0.00 0.20 0.20 65 1012.0
20260904141504 84 253 0.0 0.0 0.00 0.20 0.20 53 1012.1
20260904140002 83 253 0.0 0.0 0.00 0.20 0.20 52 1012.0
20260904134502 82 253 0.0 0.0 0.00 0.20 0.20 50 1012.1
20260904133111 82 253 0.0 0.0 0.00 0.20 0.20 48 1011.9
20260904131601 81 253 0.0 0.0 0.00 0.20 0.20 40 1011.7
20260904130100 81 253 0.0 0.0 0.00 0.20 0.20 36 1011.6
20260904124608 80 253 0.0 0.0 0.00 0.20 0.20 34 1011.4
20260904123112 0 0.0 0.0 0.00 0.20 0.20 1011.1
20260904121559 0 0.0 0.0 0.00 0.20 0.20 1011.0
20260904120054 0 0.0 0.0 0.00 0.20 0.20 1010.9
20260904114547 0 0.0 0.0 0.00 0.20 0.20 1010.9
20260904113052 0 0.0 0.0 0.00 0.20 0.20 1011.0
20260904111538 0 0.0 0.0 0.00 0.20 0.20 1010.8
20260904110038 0 0.0 0.0 0.00 0.20 0.20 1010.7
20260904104529 0 0.0 0.0 0.00 0.20 0.20 1010.6
20260904103026 0 0.0 0.0 0.00 0.20 0.20 1010.6
20260904101524 0 0.0 0.0 0.00 0.20 0.20 1010.5
20260904100018 0 0.0 0.0 0.00 0.20 0.20 1010.3
20260904094519 0 0.0 0.0 0.00 0.20 0.20 1010.4
20260904093009 0 0.0 0.0 0.00 0.20 0.20 1010.3
20260904091505 0 0.0 0.0 0.00 0.20 0.20 1010.2
20260904090000 0 0.0 0.0 0.00 0.20 0.20 1010.2
20260904084556 0 0.0 0.0 0.00 0.20 0.20 1010.3
20260904083053 0 0.0 0.0 0.00 0.20 0.20 1010.2
20260904081553 0 0.0 0.0 0.00 0.20 0.20 1010.3
20260904080051 0 0.0 0.0 0.00 0.20 0.20 1010.4
20260904074545 0 0.0 0.0 0.00 0.20 0.20 1010.5
20260904073040 0 0.0 0.0 0.00 0.20 0.20 1010.6
20260904071534 0 0.0 0.0 0.00 0.20 0.20 1010.7
20260904070043 0 0.0 0.0 0.00 0.20 0.20 1010.7
20260904064533 0 0.0 0.0 0.00 0.20 0.20 1010.9
20260904063023 80 253 0.0 0.0 0.00 0.21 0.20 46 1010.8
20260904061522 80 253 0.0 0.0 0.00 0.21 0.20 46 1010.9
20260904060023 80 253 0.0 0.0 0.00 0.21 0.20 47 1010.9
20260904054530 81 253 0.0 0.0 0.00 0.21 0.20 49 1010.7
20260904053020 81 253 0.0 0.0 0.00 0.21 0.20 51 1010.6
20260904051520 81 253 0.0 0.0 0.00 0.21 0.20 53 1010.6
20260904050021 81 253 0.0 0.0 0.00 0.21 0.20 53 1010.6
20260904044529 81 253 0.0 0.0 0.00 0.21 0.20 52 1010.7
20260904043019 81 253 0.0 0.0 0.00 0.21 0.20 52 1010.5
20260904041520 81 253 0.0 0.0 0.00 0.21 0.20 51 1010.6
20260904040019 81 253 0.0 0.0 0.00 0.21 0.20 50 1010.6
20260904034539 81 253 0.0 0.0 0.00 0.21 0.20 48 1010.6
20260904033019 80 253 0.0 0.0 0.00 0.21 0.20 46 1010.5
20260904031516 80 253 0.0 0.0 0.00 0.21 0.20 47 1010.7
20260904030015 80 253 0.0 0.0 0.00 0.21 0.20 48 1010.6
20260904024514 80 253 0.0 0.0 0.00 0.21 0.20 50 1010.6
20260904023013 80 253 0.0 0.0 0.00 0.21 0.20 51 1010.5
20260904021513 80 253 0.0 0.0 0.00 0.21 0.20 49 1010.1
20260904020012 80 253 0.0 0.0 0.00 0.21 0.20 51 1010.0
20260904014511 80 253 0.0 0.0 0.00 0.21 0.20 54 1009.9
20260904013011 81 253 0.0 0.0 0.00 0.21 0.20 56 1009.7
20260904011532 81 253 0.0 0.0 0.00 0.21 0.20 56 1009.8
20260904010010 81 253 0.0 0.0 0.00 0.21 0.20 57 1009.6